Year,Month,Day,Hour,Minute,Value (Times are PST for temperature in C)
2016,11,08,00,00,11.30
2016,11,08,00,01,11.30
2016,11,08,00,02,11.30
2016,11,08,00,03,11.30
2016,11,08,00,04,11.30
2016,11,08,00,05,11.30
2016,11,08,00,06,11.30
2016,11,08,00,07,11.20
2016,11,08,00,08,11.20
2016,11,08,00,09,11.20
2016,11,08,00,10,11.20
2016,11,08,00,11,11.20
2016,11,08,00,12,11.20
2016,11,08,00,13,11.20
2016,11,08,00,14,11.20
2016,11,08,00,15,11.20
2016,11,08,00,16,11.20
2016,11,08,00,17,11.20
2016,11,08,00,18,11.10
2016,11,08,00,19,11.10
2016,11,08,00,20,11.10
2016,11,08,00,21,11.10
2016,11,08,00,22,11.10
2016,11,08,00,23,11.10
2016,11,08,00,24,11.10
2016,11,08,00,25,11.10
2016,11,08,00,26,11.10
2016,11,08,00,27,11.10
2016,11,08,00,28,11.10
2016,11,08,00,29,11.10
2016,11,08,00,30,11.10
2016,11,08,00,31,11.10
2016,11,08,00,32,11.10
2016,11,08,00,33,11.00
2016,11,08,00,34,11.00
2016,11,08,00,35,11.00
2016,11,08,00,36,11.00
2016,11,08,00,37,11.00
2016,11,08,00,38,11.00
2016,11,08,00,39,11.00
2016,11,08,00,40,11.00
2016,11,08,00,41,11.00
2016,11,08,00,42,11.00
2016,11,08,00,43,11.00
2016,11,08,00,44,11.00
2016,11,08,00,45,11.00
2016,11,08,00,46,11.00
2016,11,08,00,47,11.00
2016,11,08,00,48,11.00
2016,11,08,00,49,11.00
2016,11,08,00,50,11.00
2016,11,08,00,51,11.00
2016,11,08,00,52,11.00
2016,11,08,00,53,11.00
2016,11,08,00,54,11.00
2016,11,08,00,55,11.00
2016,11,08,00,56,11.00
2016,11,08,00,57,11.00
2016,11,08,00,58,11.00
2016,11,08,00,59,11.00
2016,11,08,01,00,11.00
2016,11,08,01,01,11.00
2016,11,08,01,02,11.00
2016,11,08,01,03,11.00
2016,11,08,01,04,11.00
2016,11,08,01,05,11.00
2016,11,08,01,06,11.00
2016,11,08,01,07,11.00
2016,11,08,01,08,11.00
2016,11,08,01,09,11.00
2016,11,08,01,10,11.00
2016,11,08,01,11,11.00
2016,11,08,01,12,11.00
2016,11,08,01,13,11.10
2016,11,08,01,14,11.10
2016,11,08,01,15,11.10
2016,11,08,01,16,11.20
2016,11,08,01,17,11.20
2016,11,08,01,18,11.20
2016,11,08,01,19,11.30
2016,11,08,01,20,11.30
2016,11,08,01,21,11.30
2016,11,08,01,22,11.40
2016,11,08,01,23,11.40
2016,11,08,01,24,11.40
2016,11,08,01,25,11.50
2016,11,08,01,26,11.50
2016,11,08,01,27,11.60
2016,11,08,01,28,11.60
2016,11,08,01,29,11.60
2016,11,08,01,30,11.70
2016,11,08,01,31,11.70
2016,11,08,01,32,11.70
2016,11,08,01,33,11.70
2016,11,08,01,34,11.70
2016,11,08,01,35,11.80
2016,11,08,01,36,11.80
2016,11,08,01,37,11.80
2016,11,08,01,38,11.80
2016,11,08,01,39,11.80
2016,11,08,01,40,11.90
2016,11,08,01,41,11.90
2016,11,08,01,42,11.90
2016,11,08,01,43,11.90
2016,11,08,01,44,11.90
2016,11,08,01,45,11.90
2016,11,08,01,46,11.90
2016,11,08,01,47,12.00
2016,11,08,01,48,12.00
2016,11,08,01,49,12.00
2016,11,08,01,50,12.10
2016,11,08,01,51,12.10
2016,11,08,01,52,12.10
2016,11,08,01,53,12.10
2016,11,08,01,54,12.20
2016,11,08,01,55,12.20
2016,11,08,01,56,12.20
2016,11,08,01,57,12.20
2016,11,08,01,58,12.30
2016,11,08,01,59,12.30
2016,11,08,02,00,12.30
2016,11,08,02,01,12.30
2016,11,08,02,02,12.40
2016,11,08,02,03,12.40
2016,11,08,02,04,12.40
2016,11,08,02,05,12.50
2016,11,08,02,06,12.50
2016,11,08,02,07,12.60
2016,11,08,02,08,12.60
2016,11,08,02,09,12.70
2016,11,08,02,10,12.70
2016,11,08,02,11,12.70
2016,11,08,02,12,12.80
2016,11,08,02,13,12.80
2016,11,08,02,14,12.80
2016,11,08,02,15,12.90
2016,11,08,02,16,12.90
2016,11,08,02,17,12.90
2016,11,08,02,18,12.90
2016,11,08,02,19,12.90
2016,11,08,02,20,12.90
2016,11,08,02,21,13.00
2016,11,08,02,22,13.00
2016,11,08,02,23,13.00
2016,11,08,02,24,13.00
2016,11,08,02,25,13.00
2016,11,08,02,26,13.00
2016,11,08,02,27,13.00
2016,11,08,02,28,12.90
2016,11,08,02,29,12.90
2016,11,08,02,30,12.90
2016,11,08,02,31,12.90
2016,11,08,02,32,12.90
2016,11,08,02,33,12.90
2016,11,08,02,34,12.90
2016,11,08,02,35,12.90
2016,11,08,02,36,12.90
2016,11,08,02,37,12.90
2016,11,08,02,38,12.90
2016,11,08,02,39,13.00
2016,11,08,02,40,13.00
2016,11,08,02,41,13.00
2016,11,08,02,42,13.00
2016,11,08,02,43,13.10
2016,11,08,02,44,13.10
2016,11,08,02,45,13.10
2016,11,08,02,46,13.10
2016,11,08,02,47,13.20
2016,11,08,02,48,13.20
2016,11,08,02,49,13.20
2016,11,08,02,50,13.30
2016,11,08,02,51,13.30
2016,11,08,02,52,13.30
2016,11,08,02,53,13.30
2016,11,08,02,54,13.40
2016,11,08,02,55,13.40
2016,11,08,02,56,13.50
2016,11,08,02,57,13.60
2016,11,08,02,58,13.70
2016,11,08,02,59,13.80
2016,11,08,03,00,13.90
2016,11,08,03,01,14.00
2016,11,08,03,02,14.20
2016,11,08,03,03,14.30
2016,11,08,03,04,14.30
2016,11,08,03,05,14.40
2016,11,08,03,06,14.50
2016,11,08,03,07,14.50
2016,11,08,03,08,14.60
2016,11,08,03,09,14.60
2016,11,08,03,10,14.70
2016,11,08,03,11,14.80
2016,11,08,03,12,14.80
2016,11,08,03,13,14.90
2016,11,08,03,14,14.90
2016,11,08,03,15,15.00
2016,11,08,03,16,15.10
2016,11,08,03,17,15.10
2016,11,08,03,18,15.20
2016,11,08,03,19,15.20
2016,11,08,03,20,15.20
2016,11,08,03,21,15.20
2016,11,08,03,22,15.30
2016,11,08,03,23,15.30
2016,11,08,03,24,15.30
2016,11,08,03,25,15.30
2016,11,08,03,26,15.40
2016,11,08,03,27,15.40
2016,11,08,03,28,15.50
2016,11,08,03,29,15.50
2016,11,08,03,30,15.50
2016,11,08,03,31,15.50
2016,11,08,03,32,15.50
2016,11,08,03,33,15.50
2016,11,08,03,34,15.50
2016,11,08,03,35,15.60
2016,11,08,03,36,15.50
2016,11,08,03,37,15.50
2016,11,08,03,38,15.50
2016,11,08,03,39,15.50
2016,11,08,03,40,15.40
2016,11,08,03,41,15.40
2016,11,08,03,42,15.30
2016,11,08,03,43,15.30
2016,11,08,03,44,15.30
2016,11,08,03,45,15.30
2016,11,08,03,46,15.20
2016,11,08,03,47,15.20
2016,11,08,03,48,15.20
2016,11,08,03,49,15.20
2016,11,08,03,50,15.20
2016,11,08,03,51,15.20
2016,11,08,03,52,15.20
2016,11,08,03,53,15.30
2016,11,08,03,54,15.30
2016,11,08,03,55,15.30
2016,11,08,03,56,15.30
2016,11,08,03,57,15.30
2016,11,08,03,58,15.30
2016,11,08,03,59,15.30
2016,11,08,04,00,15.30
2016,11,08,04,01,15.40
2016,11,08,04,02,15.40
2016,11,08,04,03,15.40
2016,11,08,04,04,15.40
2016,11,08,04,05,15.40
2016,11,08,04,06,15.50
2016,11,08,04,07,15.50
2016,11,08,04,08,15.50
2016,11,08,04,09,15.50
2016,11,08,04,10,15.50
2016,11,08,04,11,15.50
2016,11,08,04,12,15.50
2016,11,08,04,13,15.50
2016,11,08,04,14,15.50
2016,11,08,04,15,15.50
2016,11,08,04,16,15.50
2016,11,08,04,17,15.50
2016,11,08,04,18,15.50
2016,11,08,04,19,15.50
2016,11,08,04,20,15.50
2016,11,08,04,21,15.50
2016,11,08,04,22,15.50
2016,11,08,04,23,15.50
2016,11,08,04,24,15.50
2016,11,08,04,25,15.50
2016,11,08,04,26,15.40
2016,11,08,04,27,15.40
2016,11,08,04,28,15.40
2016,11,08,04,29,15.50
2016,11,08,04,30,15.50
2016,11,08,04,31,15.50
2016,11,08,04,32,15.50
2016,11,08,04,33,15.40
2016,11,08,04,34,15.40
2016,11,08,04,35,15.30
2016,11,08,04,36,15.30
2016,11,08,04,37,15.20
2016,11,08,04,38,15.10
2016,11,08,04,39,15.10
2016,11,08,04,40,15.00
2016,11,08,04,41,15.00
2016,11,08,04,42,15.00
2016,11,08,04,43,15.00
2016,11,08,04,44,15.00
2016,11,08,04,45,14.90
2016,11,08,04,46,14.90
2016,11,08,04,47,14.90
2016,11,08,04,48,14.90
2016,11,08,04,49,14.90
2016,11,08,04,50,14.90
2016,11,08,04,51,14.90
2016,11,08,04,52,14.90
2016,11,08,04,53,14.90
2016,11,08,04,54,15.00
2016,11,08,04,55,14.90
2016,11,08,04,56,14.90
2016,11,08,04,57,14.90
2016,11,08,04,58,14.90
2016,11,08,04,59,14.90
2016,11,08,05,00,14.80
2016,11,08,05,01,14.80
2016,11,08,05,02,14.80
2016,11,08,05,03,14.80
2016,11,08,05,04,14.70
2016,11,08,05,05,14.70
2016,11,08,05,06,14.70
2016,11,08,05,07,14.70
2016,11,08,05,08,14.70
2016,11,08,05,09,14.70
2016,11,08,05,10,14.60
2016,11,08,05,11,14.70
2016,11,08,05,12,14.70
2016,11,08,05,13,14.60
2016,11,08,05,14,14.60
2016,11,08,05,15,14.60
2016,11,08,05,16,14.60
2016,11,08,05,17,14.70
2016,11,08,05,18,14.70
2016,11,08,05,19,14.80
2016,11,08,05,20,14.90
2016,11,08,05,21,14.90
2016,11,08,05,22,15.00
2016,11,08,05,23,15.10
2016,11,08,05,24,15.10
2016,11,08,05,25,15.10
2016,11,08,05,26,15.20
2016,11,08,05,27,15.20
2016,11,08,05,28,15.20
2016,11,08,05,29,15.20
2016,11,08,05,30,15.20
2016,11,08,05,31,15.20
2016,11,08,05,32,15.20
2016,11,08,05,33,15.20
2016,11,08,05,34,15.20
2016,11,08,05,35,15.20
2016,11,08,05,36,15.20
2016,11,08,05,37,15.30
2016,11,08,05,38,15.30
2016,11,08,05,39,15.40
2016,11,08,05,40,15.50
2016,11,08,05,41,15.60
2016,11,08,05,42,15.70
2016,11,08,05,43,15.70
2016,11,08,05,44,15.80
2016,11,08,05,45,15.80
2016,11,08,05,46,15.80
2016,11,08,05,47,15.80
2016,11,08,05,48,15.90
2016,11,08,05,49,15.90
2016,11,08,05,50,15.90
2016,11,08,05,51,16.00
2016,11,08,05,52,16.00
2016,11,08,05,53,16.00
2016,11,08,05,54,16.10
2016,11,08,05,55,16.10
2016,11,08,05,56,16.20
2016,11,08,05,57,16.20
2016,11,08,05,58,16.20
2016,11,08,05,59,16.30
2016,11,08,06,00,16.40
2016,11,08,06,01,16.50
2016,11,08,06,02,16.60
2016,11,08,06,03,16.60
2016,11,08,06,04,16.70
2016,11,08,06,05,16.70
2016,11,08,06,06,16.80
2016,11,08,06,07,16.80
2016,11,08,06,08,16.90
2016,11,08,06,09,17.00
2016,11,08,06,10,17.10
2016,11,08,06,11,17.10
2016,11,08,06,12,17.10
2016,11,08,06,13,17.20
2016,11,08,06,14,17.20
2016,11,08,06,15,17.20
2016,11,08,06,16,17.20
2016,11,08,06,17,17.20
2016,11,08,06,18,17.20
2016,11,08,06,19,17.20
2016,11,08,06,20,17.30
2016,11,08,06,21,17.30
2016,11,08,06,22,17.30
2016,11,08,06,23,17.30
2016,11,08,06,24,17.30
2016,11,08,06,25,17.30
2016,11,08,06,26,17.30
2016,11,08,06,27,17.30
2016,11,08,06,28,17.30
2016,11,08,06,29,17.30
2016,11,08,06,30,17.30
2016,11,08,06,31,17.40
2016,11,08,06,32,17.40
2016,11,08,06,33,17.40
2016,11,08,06,34,17.40
2016,11,08,06,35,17.50
2016,11,08,06,36,17.50
2016,11,08,06,37,17.50
2016,11,08,06,38,17.50
2016,11,08,06,39,17.50
2016,11,08,06,40,17.40
2016,11,08,06,41,17.40
2016,11,08,06,42,17.40
2016,11,08,06,43,17.40
2016,11,08,06,44,17.40
2016,11,08,06,45,17.40
2016,11,08,06,46,17.50
2016,11,08,06,47,17.50
2016,11,08,06,48,17.50
2016,11,08,06,49,17.60
2016,11,08,06,50,17.60
2016,11,08,06,51,17.60
2016,11,08,06,52,17.60
2016,11,08,06,53,17.60
2016,11,08,06,54,17.60
2016,11,08,06,55,17.60
2016,11,08,06,56,17.60
2016,11,08,06,57,17.60
2016,11,08,06,58,17.60
2016,11,08,06,59,17.60
2016,11,08,07,00,17.70
2016,11,08,07,01,17.70
2016,11,08,07,02,17.70
2016,11,08,07,03,17.70
2016,11,08,07,04,17.80
2016,11,08,07,05,17.80
2016,11,08,07,06,17.80
2016,11,08,07,07,17.90
2016,11,08,07,08,17.90
2016,11,08,07,09,18.00
2016,11,08,07,10,18.00
2016,11,08,07,11,18.10
2016,11,08,07,12,18.20
2016,11,08,07,13,18.20
2016,11,08,07,14,18.30
2016,11,08,07,15,18.30
2016,11,08,07,16,18.30
2016,11,08,07,17,18.30
2016,11,08,07,18,18.30
2016,11,08,07,19,18.30
2016,11,08,07,20,18.30
2016,11,08,07,21,18.30
2016,11,08,07,22,18.30
2016,11,08,07,23,18.30
2016,11,08,07,24,18.30
2016,11,08,07,25,18.30
2016,11,08,07,26,18.40
2016,11,08,07,27,18.40
2016,11,08,07,28,18.50
2016,11,08,07,29,18.50
2016,11,08,07,30,18.50
2016,11,08,07,31,18.50
2016,11,08,07,32,18.40
2016,11,08,07,33,18.40
2016,11,08,07,34,18.40
2016,11,08,07,35,18.40
2016,11,08,07,36,18.40
2016,11,08,07,37,18.40
2016,11,08,07,38,18.40
2016,11,08,07,39,18.40
2016,11,08,07,40,18.50
2016,11,08,07,41,18.50
2016,11,08,07,42,18.40
2016,11,08,07,43,18.30
2016,11,08,07,44,18.20
2016,11,08,07,45,18.10
2016,11,08,07,46,18.00
2016,11,08,07,47,18.00
2016,11,08,07,48,18.10
2016,11,08,07,49,18.20
2016,11,08,07,50,18.20
2016,11,08,07,51,18.20
2016,11,08,07,52,18.10
2016,11,08,07,53,18.10
2016,11,08,07,54,18.10
2016,11,08,07,55,18.10
2016,11,08,07,56,18.10
2016,11,08,07,57,18.00
2016,11,08,07,58,17.90
2016,11,08,07,59,17.90
2016,11,08,08,00,17.80
2016,11,08,08,01,17.70
2016,11,08,08,02,17.60
2016,11,08,08,03,17.60
2016,11,08,08,04,17.50
2016,11,08,08,05,17.40
2016,11,08,08,06,17.40
2016,11,08,08,07,17.30
2016,11,08,08,08,17.20
2016,11,08,08,09,17.10
2016,11,08,08,10,17.00
2016,11,08,08,11,16.90
2016,11,08,08,12,16.90
2016,11,08,08,13,16.80
2016,11,08,08,14,16.80
2016,11,08,08,15,16.70
2016,11,08,08,16,16.70
2016,11,08,08,17,16.60
2016,11,08,08,18,16.60
2016,11,08,08,19,16.60
2016,11,08,08,20,16.60
2016,11,08,08,21,16.60
2016,11,08,08,22,16.70
2016,11,08,08,23,16.70
2016,11,08,08,24,16.70
2016,11,08,08,25,16.80
2016,11,08,08,26,16.80
2016,11,08,08,27,16.80
2016,11,08,08,28,16.80
2016,11,08,08,29,16.80
2016,11,08,08,30,16.70
2016,11,08,08,31,16.70
2016,11,08,08,32,16.70
2016,11,08,08,33,16.70
2016,11,08,08,34,16.70
2016,11,08,08,35,16.60
2016,11,08,08,36,16.60
2016,11,08,08,37,16.60
2016,11,08,08,38,16.50
2016,11,08,08,39,16.40
2016,11,08,08,40,16.40
2016,11,08,08,41,16.30
2016,11,08,08,42,16.20
2016,11,08,08,43,16.20
2016,11,08,08,44,16.10
2016,11,08,08,45,16.10
2016,11,08,08,46,16.00
2016,11,08,08,47,16.00
2016,11,08,08,48,15.90
2016,11,08,08,49,15.90
2016,11,08,08,50,15.90
2016,11,08,08,51,15.90
2016,11,08,08,52,15.90
2016,11,08,08,53,15.90
2016,11,08,08,54,15.80
2016,11,08,08,55,15.80
2016,11,08,08,56,15.80
2016,11,08,08,57,15.80
2016,11,08,08,58,15.80
2016,11,08,08,59,15.80
2016,11,08,09,00,15.80
2016,11,08,09,01,15.80
2016,11,08,09,02,15.80
2016,11,08,09,03,15.80
2016,11,08,09,04,15.80
2016,11,08,09,05,15.80
2016,11,08,09,06,15.80
2016,11,08,09,07,15.80
2016,11,08,09,08,15.80
2016,11,08,09,09,15.80
2016,11,08,09,10,15.80
2016,11,08,09,11,15.80
2016,11,08,09,12,15.80
2016,11,08,09,13,15.80
2016,11,08,09,14,15.80
2016,11,08,09,15,15.80
2016,11,08,09,16,15.90
2016,11,08,09,17,15.90
2016,11,08,09,18,15.90
2016,11,08,09,19,15.90
2016,11,08,09,20,15.90
2016,11,08,09,21,15.90
2016,11,08,09,22,15.90
2016,11,08,09,23,15.90
2016,11,08,09,24,15.90
2016,11,08,09,25,15.90
2016,11,08,09,26,15.90
2016,11,08,09,27,16.00
2016,11,08,09,28,16.00
2016,11,08,09,29,16.00
2016,11,08,09,30,16.10
2016,11,08,09,31,16.10
2016,11,08,09,32,16.10
2016,11,08,09,33,16.10
2016,11,08,09,34,16.10
2016,11,08,09,35,16.10
2016,11,08,09,36,16.10
2016,11,08,09,37,16.10
2016,11,08,09,38,16.10
2016,11,08,09,39,16.10
2016,11,08,09,40,16.10
2016,11,08,09,41,16.10
2016,11,08,09,42,16.20
2016,11,08,09,43,16.20
2016,11,08,09,44,16.20
2016,11,08,09,45,16.20
2016,11,08,09,46,16.20
2016,11,08,09,47,16.20
2016,11,08,09,48,16.20
2016,11,08,09,49,16.20
2016,11,08,09,50,16.20
2016,11,08,09,51,16.10
2016,11,08,09,52,16.10
2016,11,08,09,53,16.10
2016,11,08,09,54,16.10
2016,11,08,09,55,16.10
2016,11,08,09,56,16.10
2016,11,08,09,57,16.00
2016,11,08,09,58,16.00
2016,11,08,09,59,16.00
2016,11,08,10,00,16.00
2016,11,08,10,01,16.00
2016,11,08,10,02,16.00
2016,11,08,10,03,15.90
2016,11,08,10,04,16.00
2016,11,08,10,05,15.90
2016,11,08,10,06,15.90
2016,11,08,10,07,16.00
2016,11,08,10,08,16.00
2016,11,08,10,09,15.90
2016,11,08,10,10,15.90
2016,11,08,10,11,15.80
2016,11,08,10,12,15.80
2016,11,08,10,13,15.80
2016,11,08,10,14,15.80
2016,11,08,10,15,15.70
2016,11,08,10,16,15.70
2016,11,08,10,17,15.70
2016,11,08,10,18,15.70
2016,11,08,10,19,15.60
2016,11,08,10,20,15.60
2016,11,08,10,21,15.60
2016,11,08,10,22,15.60
2016,11,08,10,23,15.60
2016,11,08,10,24,15.60
2016,11,08,10,25,15.60
2016,11,08,10,26,15.70
2016,11,08,10,27,15.70
2016,11,08,10,28,15.70
2016,11,08,10,29,15.60
2016,11,08,10,30,15.60
2016,11,08,10,31,15.50
2016,11,08,10,32,15.50
2016,11,08,10,33,15.40
2016,11,08,10,34,15.40
2016,11,08,10,35,15.30
2016,11,08,10,36,15.30
2016,11,08,10,37,15.30
2016,11,08,10,38,15.30
2016,11,08,10,39,15.30
2016,11,08,10,40,15.30
2016,11,08,10,41,15.30
2016,11,08,10,42,15.30
2016,11,08,10,43,15.30
2016,11,08,10,44,15.30
2016,11,08,10,45,15.30
2016,11,08,10,46,15.30
2016,11,08,10,47,15.30
2016,11,08,10,48,15.20
2016,11,08,10,49,15.20
2016,11,08,10,50,15.10
2016,11,08,10,51,15.00
2016,11,08,10,52,14.90
2016,11,08,10,53,14.90
2016,11,08,10,54,14.80
2016,11,08,10,55,14.80
2016,11,08,10,56,14.70
2016,11,08,10,57,14.70
2016,11,08,10,58,14.70
2016,11,08,10,59,14.70
2016,11,08,11,00,14.70
2016,11,08,11,01,14.70
2016,11,08,11,02,14.70
2016,11,08,11,03,14.70
2016,11,08,11,04,14.70
2016,11,08,11,05,14.70
2016,11,08,11,06,14.70
2016,11,08,11,07,14.70
2016,11,08,11,08,14.70
2016,11,08,11,09,14.70
2016,11,08,11,10,14.70
2016,11,08,11,11,14.70
2016,11,08,11,12,14.80
2016,11,08,11,13,14.80
2016,11,08,11,14,14.80
2016,11,08,11,15,14.80
2016,11,08,11,16,14.80
2016,11,08,11,17,14.90
2016,11,08,11,18,14.90
2016,11,08,11,19,15.00
2016,11,08,11,20,15.10
2016,11,08,11,21,15.10
2016,11,08,11,22,15.10
2016,11,08,11,23,15.20
2016,11,08,11,24,15.20
2016,11,08,11,25,15.20
2016,11,08,11,26,15.30
2016,11,08,11,27,15.30
2016,11,08,11,28,15.30
2016,11,08,11,29,15.30
2016,11,08,11,30,15.30
2016,11,08,11,31,15.30
2016,11,08,11,32,15.30
2016,11,08,11,33,15.30
2016,11,08,11,34,15.30
2016,11,08,11,35,15.30
2016,11,08,11,36,15.30
2016,11,08,11,37,15.30
2016,11,08,11,38,15.30
2016,11,08,11,39,15.40
2016,11,08,11,40,15.40
2016,11,08,11,41,15.40
2016,11,08,11,42,15.50
2016,11,08,11,43,15.50
2016,11,08,11,44,15.60
2016,11,08,11,45,15.60
2016,11,08,11,46,15.60
2016,11,08,11,47,15.60
2016,11,08,11,48,15.60
2016,11,08,11,49,15.50
2016,11,08,11,50,15.50
2016,11,08,11,51,15.50
2016,11,08,11,52,15.40
2016,11,08,11,53,15.40
2016,11,08,11,54,15.30
2016,11,08,11,55,15.30
2016,11,08,11,56,15.30
2016,11,08,11,57,15.30
2016,11,08,11,58,15.20
2016,11,08,11,59,15.20
2016,11,08,12,00,15.20
2016,11,08,12,01,15.10
2016,11,08,12,02,15.10
2016,11,08,12,03,15.10
2016,11,08,12,04,15.10
2016,11,08,12,05,15.10
2016,11,08,12,06,15.00
2016,11,08,12,07,15.00
2016,11,08,12,08,15.00
2016,11,08,12,09,15.00
2016,11,08,12,10,15.00
2016,11,08,12,11,15.00
2016,11,08,12,12,15.00
2016,11,08,12,13,15.00
2016,11,08,12,14,15.00
2016,11,08,12,15,15.00
2016,11,08,12,16,15.00
2016,11,08,12,17,15.00
2016,11,08,12,18,15.00
2016,11,08,12,19,15.00
2016,11,08,12,20,15.00
2016,11,08,12,21,15.10
2016,11,08,12,22,15.10
2016,11,08,12,23,15.10
2016,11,08,12,24,15.10
2016,11,08,12,25,15.20
2016,11,08,12,26,15.20
2016,11,08,12,27,15.20
2016,11,08,12,28,15.20
2016,11,08,12,29,15.20
2016,11,08,12,30,15.30
2016,11,08,12,31,15.30
2016,11,08,12,32,15.30
2016,11,08,12,33,15.30
2016,11,08,12,34,15.30
2016,11,08,12,35,15.30
2016,11,08,12,36,15.30
2016,11,08,12,37,15.40
2016,11,08,12,38,15.40
2016,11,08,12,39,15.40
2016,11,08,12,40,15.40
2016,11,08,12,41,15.40
2016,11,08,12,42,15.50
2016,11,08,12,43,15.50
2016,11,08,12,44,15.60
2016,11,08,12,45,15.60
2016,11,08,12,46,15.70
2016,11,08,12,47,15.70
2016,11,08,12,48,15.70
2016,11,08,12,49,15.70
2016,11,08,12,50,15.70
2016,11,08,12,51,15.70
2016,11,08,12,52,15.70
2016,11,08,12,53,15.70
2016,11,08,12,54,15.60
2016,11,08,12,55,15.60
2016,11,08,12,56,15.60
2016,11,08,12,57,15.60
2016,11,08,12,58,15.60
2016,11,08,12,59,15.70
2016,11,08,13,00,15.70
2016,11,08,13,01,15.70
2016,11,08,13,02,15.70
2016,11,08,13,03,15.70
2016,11,08,13,04,15.70
2016,11,08,13,05,15.70
2016,11,08,13,06,15.70
2016,11,08,13,07,15.70
2016,11,08,13,08,15.70
2016,11,08,13,09,15.70
2016,11,08,13,10,15.70
2016,11,08,13,11,15.60
2016,11,08,13,12,15.60
2016,11,08,13,13,15.60
2016,11,08,13,14,15.60
2016,11,08,13,15,15.60
2016,11,08,13,16,15.50
2016,11,08,13,17,15.50
2016,11,08,13,18,15.50
2016,11,08,13,19,15.40
2016,11,08,13,20,15.40
2016,11,08,13,21,15.40
2016,11,08,13,22,15.40
2016,11,08,13,23,15.40
2016,11,08,13,24,15.50
2016,11,08,13,25,15.50
2016,11,08,13,26,15.50
2016,11,08,13,27,15.50
2016,11,08,13,28,15.60
2016,11,08,13,29,15.60
2016,11,08,13,30,15.60
2016,11,08,13,31,15.60
2016,11,08,13,32,15.60
2016,11,08,13,33,15.60
2016,11,08,13,34,15.60
2016,11,08,13,35,15.60
2016,11,08,13,36,15.60
2016,11,08,13,37,15.60
2016,11,08,13,38,15.60
2016,11,08,13,39,15.60
2016,11,08,13,40,15.50
2016,11,08,13,41,15.50
2016,11,08,13,42,15.50
2016,11,08,13,43,15.50
2016,11,08,13,44,15.50
2016,11,08,13,45,15.50
2016,11,08,13,46,15.60
2016,11,08,13,47,15.60
2016,11,08,13,48,15.60
2016,11,08,13,49,15.60
2016,11,08,13,50,15.60
2016,11,08,13,51,15.60
2016,11,08,13,52,15.70
2016,11,08,13,53,15.70
2016,11,08,13,54,15.70
2016,11,08,13,55,15.70
2016,11,08,13,56,15.70
2016,11,08,13,57,15.70
2016,11,08,13,58,15.70
2016,11,08,13,59,15.80
2016,11,08,14,00,15.70
2016,11,08,14,01,15.70
2016,11,08,14,02,15.70
2016,11,08,14,03,15.80
2016,11,08,14,04,15.80
2016,11,08,14,05,15.80
2016,11,08,14,06,15.80
2016,11,08,14,07,15.80
2016,11,08,14,08,15.80
2016,11,08,14,09,15.80
2016,11,08,14,10,15.80
2016,11,08,14,11,15.80
2016,11,08,14,12,15.80
2016,11,08,14,13,15.80
2016,11,08,14,14,15.70
2016,11,08,14,15,15.70
2016,11,08,14,16,15.70
2016,11,08,14,17,15.70
2016,11,08,14,18,15.70
2016,11,08,14,19,15.70
2016,11,08,14,20,15.70
2016,11,08,14,21,15.70
2016,11,08,14,22,15.70
2016,11,08,14,23,15.70
2016,11,08,14,24,15.70
2016,11,08,14,25,15.60
2016,11,08,14,26,15.60
2016,11,08,14,27,15.50
2016,11,08,14,28,15.40
2016,11,08,14,29,15.40
2016,11,08,14,30,15.30
2016,11,08,14,31,15.30
2016,11,08,14,32,15.20
2016,11,08,14,33,15.20
2016,11,08,14,34,15.20
2016,11,08,14,35,15.10
2016,11,08,14,36,15.10
2016,11,08,14,37,15.00
2016,11,08,14,38,15.00
2016,11,08,14,39,15.00
2016,11,08,14,40,15.00
2016,11,08,14,41,14.90
2016,11,08,14,42,14.90
2016,11,08,14,43,14.90
2016,11,08,14,44,14.90
2016,11,08,14,45,14.90
2016,11,08,14,46,14.90
2016,11,08,14,47,14.90
2016,11,08,14,48,14.80
2016,11,08,14,49,14.80
2016,11,08,14,50,14.80
2016,11,08,14,51,14.80
2016,11,08,14,52,14.80
2016,11,08,14,53,14.80
2016,11,08,14,54,14.80
2016,11,08,14,55,14.80
2016,11,08,14,56,14.80
2016,11,08,14,57,14.80
2016,11,08,14,58,14.80
2016,11,08,14,59,14.80
2016,11,08,15,00,14.80
2016,11,08,15,01,14.80
2016,11,08,15,02,14.80
2016,11,08,15,03,14.80
2016,11,08,15,04,14.80
2016,11,08,15,05,14.80
2016,11,08,15,06,14.80
2016,11,08,15,07,14.80
2016,11,08,15,08,14.80
2016,11,08,15,09,14.80
2016,11,08,15,10,14.80
2016,11,08,15,11,14.80
2016,11,08,15,12,14.80
2016,11,08,15,13,14.80
2016,11,08,15,14,14.80
2016,11,08,15,15,14.80
2016,11,08,15,16,14.90
2016,11,08,15,17,14.90
2016,11,08,15,18,14.90
2016,11,08,15,19,14.90
2016,11,08,15,20,14.90
2016,11,08,15,21,14.90
2016,11,08,15,22,14.90
2016,11,08,15,23,14.90
2016,11,08,15,24,14.90
2016,11,08,15,25,15.00
2016,11,08,15,26,15.00
2016,11,08,15,27,15.00
2016,11,08,15,28,15.00
2016,11,08,15,29,15.00
2016,11,08,15,30,15.00
2016,11,08,15,31,15.00
2016,11,08,15,32,14.90
2016,11,08,15,33,14.90
2016,11,08,15,34,14.90
2016,11,08,15,35,14.80
2016,11,08,15,36,14.80
2016,11,08,15,37,14.80
2016,11,08,15,38,14.70
2016,11,08,15,39,14.70
2016,11,08,15,40,14.70
2016,11,08,15,41,14.60
2016,11,08,15,42,14.60
2016,11,08,15,43,14.60
2016,11,08,15,44,14.50
2016,11,08,15,45,14.50
2016,11,08,15,46,14.50
2016,11,08,15,47,14.40
2016,11,08,15,48,14.40
2016,11,08,15,49,14.40
2016,11,08,15,50,14.40
2016,11,08,15,51,14.30
2016,11,08,15,52,14.30
2016,11,08,15,53,14.30
2016,11,08,15,54,14.30
2016,11,08,15,55,14.20
2016,11,08,15,56,14.20
2016,11,08,15,57,14.10
2016,11,08,15,58,14.10
2016,11,08,15,59,14.00
2016,11,08,16,00,14.00
2016,11,08,16,01,13.90
2016,11,08,16,02,13.90
2016,11,08,16,03,13.90
2016,11,08,16,04,13.80
2016,11,08,16,05,13.80
2016,11,08,16,06,13.80
2016,11,08,16,07,13.80
2016,11,08,16,08,13.70
2016,11,08,16,09,13.70
2016,11,08,16,10,13.70
2016,11,08,16,11,13.60
2016,11,08,16,12,13.60
2016,11,08,16,13,13.60
2016,11,08,16,14,13.50
2016,11,08,16,15,13.50
2016,11,08,16,16,13.50
2016,11,08,16,17,13.50
2016,11,08,16,18,13.40
2016,11,08,16,19,13.40
2016,11,08,16,20,13.40
2016,11,08,16,21,13.40
2016,11,08,16,22,13.40
2016,11,08,16,23,13.40
2016,11,08,16,24,13.40
2016,11,08,16,25,13.40
2016,11,08,16,26,13.30
2016,11,08,16,27,13.30
2016,11,08,16,28,13.30
2016,11,08,16,29,13.30
2016,11,08,16,30,13.30
2016,11,08,16,31,13.30
2016,11,08,16,32,13.30
2016,11,08,16,33,13.30
2016,11,08,16,34,13.20
2016,11,08,16,35,13.20
2016,11,08,16,36,13.20
2016,11,08,16,37,13.20
2016,11,08,16,38,13.20
2016,11,08,16,39,13.20
2016,11,08,16,40,13.20
2016,11,08,16,41,13.20
2016,11,08,16,42,13.20
2016,11,08,16,43,13.20
2016,11,08,16,44,13.20
2016,11,08,16,45,13.20
2016,11,08,16,46,13.20
2016,11,08,16,47,13.20
2016,11,08,16,48,13.20
2016,11,08,16,49,13.10
2016,11,08,16,50,13.10
2016,11,08,16,51,13.10
2016,11,08,16,52,13.10
2016,11,08,16,53,13.10
2016,11,08,16,54,13.10
2016,11,08,16,55,13.10
2016,11,08,16,56,13.10
2016,11,08,16,57,13.10
2016,11,08,16,58,13.00
2016,11,08,16,59,13.00
2016,11,08,17,00,13.00
2016,11,08,17,01,13.00
2016,11,08,17,02,13.00
2016,11,08,17,03,13.00
2016,11,08,17,04,13.00
2016,11,08,17,05,13.00
2016,11,08,17,06,13.00
2016,11,08,17,07,13.00
2016,11,08,17,08,13.00
2016,11,08,17,09,13.00
2016,11,08,17,10,13.00
2016,11,08,17,11,13.00
2016,11,08,17,12,13.00
2016,11,08,17,13,13.00
2016,11,08,17,14,13.00
2016,11,08,17,15,13.00
2016,11,08,17,16,13.00
2016,11,08,17,17,13.00
2016,11,08,17,18,13.00
2016,11,08,17,19,13.00